• în Republica Moldova
  • Lista ţărilor
  • Pe 7 zile
  • Temperatura apei
  • Hartă satelitară
  • Meteo pe hartă
  • Widget-uri
  • user-avatar
    Intrare

    Meteo pe oră la Ali Bayramli

    Astăzi, 18 Noiembrie, Sâmbătă

    Timp Temperatura Precipitaţii Vânt Presiune Umiditate
    00:00 +13°C° 0 mm 5 m/s 767 mmHg 79%
    01:00 +13°C° 0 mm 5 m/s 767 mmHg 79%
    02:00 +13°C° 0 mm 5 m/s 767 mmHg 79%
    03:00 +13°C° 0 mm 4 m/s 767 mmHg 80%
    04:00 +13°C° 0,1 mm 4 m/s 767 mmHg 80%
    05:00 +13°C° 0,1 mm 4 m/s 767 mmHg 80%
    06:00 +13°C° 0,1 mm 4 m/s 767 mmHg 80%
    07:00 +13°C° 0,3 mm 4 m/s 767 mmHg 80%
    08:00 +13°C° 0,3 mm 3 m/s 767 mmHg 80%
    09:00 +13°C° 0,3 mm 3 m/s 767 mmHg 81%
    10:00 +14°C° 0,3 mm 3 m/s 766 mmHg 80%
    11:00 +14°C° 0,3 mm 3 m/s 766 mmHg 80%
    12:00 +14°C° 0,3 mm 3 m/s 766 mmHg 79%
    13:00 +16°C° 0,1 mm 3 m/s 765 mmHg 78%
    14:00 +16°C° 0,1 mm 3 m/s 765 mmHg 76%
    15:00 +16°C° 0,1 mm 3 m/s 764 mmHg 75%
    16:00 +16°C° 0,1 mm 3 m/s 764 mmHg 76%
    17:00 +15°C° 0,1 mm 2 m/s 764 mmHg 77%
    18:00 +14°C° 0,1 mm 2 m/s 764 mmHg 78%
    19:00 +14°C° 0 mm 2 m/s 764 mmHg 77%
    20:00 +14°C° 0 mm 2 m/s 764 mmHg 76%
    21:00 +14°C° 0 mm 2 m/s 764 mmHg 74%
    22:00 +14°C° 0 mm 2 m/s 764 mmHg 74%
    23:00 +13°C° 0 mm 2 m/s 764 mmHg 74%

    Mâine, 19 Noiembrie, Duminică

    Timp Temperatura Precipitaţii Vânt Presiune Umiditate
    00:00 +13°C° 0 mm 2 m/s 763 mmHg 73%
    01:00 +13°C° 0 mm 2 m/s 763 mmHg 73%
    02:00 +13°C° 0 mm 2 m/s 763 mmHg 73%
    03:00 +13°C° 0 mm 2 m/s 763 mmHg 73%
    04:00 +12°C° 0 mm 2 m/s 763 mmHg 74%
    05:00 +12°C° 0 mm 2 m/s 763 mmHg 76%
    06:00 +12°C° 0 mm 2 m/s 762 mmHg 77%
    07:00 +12°C° 0 mm 2 m/s 762 mmHg 74%
    08:00 +12°C° 0 mm 3 m/s 762 mmHg 71%
    09:00 +13°C° 0 mm 3 m/s 762 mmHg 68%
    10:00 +14°C° 0 mm 3 m/s 762 mmHg 64%
    11:00 +16°C° 0 mm 3 m/s 761 mmHg 60%
    12:00 +17°C° 0 mm 3 m/s 761 mmHg 56%
    13:00 +17°C° 0 mm 3 m/s 760 mmHg 54%
    14:00 +18°C° 0 mm 3 m/s 760 mmHg 51%
    15:00 +18°C° 0 mm 2 m/s 759 mmHg 49%
    16:00 +17°C° 0 mm 2 m/s 759 mmHg 53%
    17:00 +16°C° 0 mm 2 m/s 759 mmHg 56%
    18:00 +15°C° 0 mm 2 m/s 759 mmHg 59%
    19:00 +15°C° 0 mm 2 m/s 759 mmHg 61%
    20:00 +14°C° 0 mm 2 m/s 759 mmHg 62%
    21:00 +14°C° 0 mm 2 m/s 759 mmHg 63%
    22:00 +14°C° 0 mm 2 m/s 759 mmHg 63%
    23:00 +14°C° 0 mm 2 m/s 758 mmHg 63%

    Poimâine, 20 Noiembrie, Luni

    Timp Temperatura Precipitaţii Vânt Presiune Umiditate
    00:00 +13°C° 0 mm 2 m/s 758 mmHg 64%
    01:00 +13°C° 0 mm 2 m/s 758 mmHg 63%
    02:00 +13°C° 0 mm 2 m/s 758 mmHg 62%
    03:00 +13°C° 0 mm 2 m/s 758 mmHg 60%
    04:00 +12°C° 0 mm 3 m/s 758 mmHg 60%
    05:00 +12°C° 0 mm 3 m/s 758 mmHg 59%
    06:00 +12°C° 0 mm 3 m/s 758 mmHg 58%
    07:00 +13°C° 0 mm 4 m/s 758 mmHg 54%
    08:00 +14°C° 0 mm 4 m/s 758 mmHg 50%
    09:00 +14°C° 0 mm 5 m/s 758 mmHg 46%
    10:00 +16°C° 0 mm 5 m/s 758 mmHg 41%
    11:00 +19°C° 0 mm 5 m/s 757 mmHg 35%
    12:00 +20°C° 0 mm 6 m/s 757 mmHg 30%
    13:00 +21°C° 0 mm 5 m/s 757 mmHg 30%
    14:00 +21°C° 0 mm 5 m/s 756 mmHg 30%
    15:00 +21°C° 0 mm 4 m/s 756 mmHg 29%
    16:00 +20°C° 0 mm 4 m/s 756 mmHg 32%
    17:00 +19°C° 0 mm 4 m/s 756 mmHg 35%
    18:00 +18°C° 0 mm 4 m/s 756 mmHg 38%
    19:00 +17°C° 0 mm 3 m/s 756 mmHg 40%
    20:00 +17°C° 0 mm 3 m/s 756 mmHg 41%
    21:00 +16°C° 0 mm 3 m/s 756 mmHg 43%
    22:00 +16°C° 0 mm 3 m/s 755 mmHg 44%
    23:00 +14°C° 0 mm 3 m/s 755 mmHg 45%

    21 Noiembrie, Marţi

    Timp Temperatura Precipitaţii Vânt Presiune Umiditate
    00:00 +15°C° 0 mm 2 m/s 755 mmHg 47%
    01:00 +14°C° 0 mm 3 m/s 755 mmHg 46%
    02:00 +14°C° 0 mm 3 m/s 754 mmHg 45%
    03:00 +13°C° 0 mm 3 m/s 754 mmHg 44%
    04:00 +13°C° 0 mm 3 m/s 754 mmHg 44%
    05:00 +13°C° 0 mm 3 m/s 754 mmHg 44%
    06:00 +13°C° 0 mm 3 m/s 754 mmHg 43%
    07:00 +14°C° 0 mm 3 m/s 754 mmHg 41%
    08:00 +16°C° 0 mm 3 m/s 753 mmHg 40%
    09:00 +16°C° 0 mm 3 m/s 753 mmHg 38%
    10:00 +18°C° 0 mm 3 m/s 753 mmHg 35%
    11:00 +19°C° 0 mm 4 m/s 752 mmHg 32%
    12:00 +20°C° 0 mm 4 m/s 752 mmHg 29%
    13:00 +20°C° 0 mm 4 m/s 751 mmHg 30%
    14:00 +20°C° 0 mm 3 m/s 751 mmHg 30%
    15:00 +21°C° 0 mm 3 m/s 751 mmHg 30%
    16:00 +20°C° 0 mm 3 m/s 751 mmHg 33%
    17:00 +18°C° 0 mm 3 m/s 751 mmHg 35%
    18:00 +17°C° 0 mm 3 m/s 751 mmHg 37%
    19:00 +17°C° 0 mm 3 m/s 751 mmHg 38%
    20:00 +17°C° 0 mm 3 m/s 751 mmHg 39%
    21:00 +16°C° 0 mm 2 m/s 751 mmHg 40%
    22:00 +16°C° 0 mm 2 m/s 751 mmHg 42%
    23:00 +15°C° 0 mm 2 m/s 751 mmHg 43%

    22 Noiembrie, Miercuri

    Timp Temperatura Precipitaţii Vânt Presiune Umiditate
    00:00 +15°C° 0 mm 2 m/s 751 mmHg 44%
    01:00 +15°C° 0 mm 2 m/s 751 mmHg 45%
    02:00 +14°C° 0 mm 2 m/s 751 mmHg 46%
    03:00 +14°C° 0 mm 2 m/s 751 mmHg 47%
    04:00 +13°C° 0 mm 3 m/s 752 mmHg 52%
    05:00 +12°C° 0 mm 3 m/s 752 mmHg 58%
    06:00 +12°C° 0 mm 4 m/s 752 mmHg 63%
    07:00 +13°C° 0 mm 4 m/s 753 mmHg 62%
    08:00 +13°C° 0 mm 5 m/s 754 mmHg 61%
    09:00 +14°C° 0 mm 6 m/s 754 mmHg 60%
    10:00 +15°C° 0 mm 6 m/s 755 mmHg 59%
    11:00 +15°C° 0 mm 6 m/s 755 mmHg 57%
    12:00 +16°C° 0 mm 7 m/s 755 mmHg 55%
    13:00 +15°C° 0 mm 7 m/s 755 mmHg 56%
    14:00 +15°C° 0 mm 7 m/s 755 mmHg 57%
    15:00 +14°C° 0 mm 6 m/s 756 mmHg 58%
    16:00 +13°C° 0,4 mm 6 m/s 756 mmHg 61%
    17:00 +13°C° 0,4 mm 5 m/s 757 mmHg 64%
    18:00 +12°C° 0,4 mm 5 m/s 758 mmHg 67%
    19:00 +11°C° 0,7 mm 4 m/s 758 mmHg 69%
    20:00 +11°C° 0,7 mm 4 m/s 758 mmHg 71%
    21:00 +10°C° 0,7 mm 4 m/s 759 mmHg 73%
    22:00 +10°C° 0 mm 3 m/s 759 mmHg 73%
    23:00 +10°C° 0 mm 3 m/s 759 mmHg 74%

    23 Noiembrie, Joi

    Timp Temperatura Precipitaţii Vânt Presiune Umiditate
    00:00 +10°C° 0 mm 3 m/s 759 mmHg 74%
    01:00 +9°C° 0 mm 2 m/s 759 mmHg 75%
    02:00 +9°C° 0 mm 2 m/s 759 mmHg 76%
    03:00 +9°C° 0 mm 2 m/s 759 mmHg 78%
    04:00 +9°C° 0 mm 2 m/s 759 mmHg 78%
    05:00 +8°C° 0 mm 2 m/s 759 mmHg 79%
    06:00 +8°C° 0 mm 2 m/s 759 mmHg 80%
    07:00 +9°C° 0 mm 2 m/s 760 mmHg 76%
    08:00 +10°C° 0 mm 2 m/s 760 mmHg 73%
    09:00 +10°C° 0 mm 2 m/s 761 mmHg 70%
    10:00 +11°C° 0 mm 3 m/s 761 mmHg 66%
    11:00 +11°C° 0 mm 3 m/s 760 mmHg 62%
    12:00 +12°C° 0 mm 3 m/s 760 mmHg 59%
    13:00 +12°C° 0 mm 4 m/s 761 mmHg 58%
    14:00 +11°C° 0 mm 4 m/s 761 mmHg 57%
    15:00 +11°C° 0 mm 4 m/s 761 mmHg 57%
    16:00 +10°C° 0,3 mm 5 m/s 762 mmHg 60%
    17:00 +9°C° 0,3 mm 5 m/s 762 mmHg 63%
    18:00 +8°C° 0,3 mm 5 m/s 763 mmHg 66%
    19:00 +8°C° 0,3 mm 5 m/s 763 mmHg 68%
    20:00 +8°C° 0,3 mm 5 m/s 763 mmHg 69%
    21:00 +8°C° 0,3 mm 6 m/s 764 mmHg 70%
    22:00 +8°C° 0,3 mm 6 m/s 764 mmHg 70%
    23:00 +7°C° 0,3 mm 6 m/s 764 mmHg 71%
    Arată mai mult